Temporada 2026 · Ronda 7

Barcelona Grand Prix

Ferrari 1:32:28.105
Victoria de equipo 25pt P1 · P15
Mercedes +19.561
McLaren +23.719
Victoria de equipo 25pt P3 · P5
Vuelta rápida
1:20.122 · L44
Abandono
5
Alexander Albon L55 Fernando Alonso L37 Nico Hülkenberg L29 Valtteri Bottas L15 Lance Stroll L5
Clima
31°/50°
media aire/pista · seco · humedad 29%
Coche de seguridad
2
desplegado en la vuelta L41, L63
Uso de neumáticos Dirección de carrera
Storylines · This Grand Prix & circuit
Conversión pole-victoria 25/36 69.4%
Most SC/VSC · all-time P14
Most lead changes · all-time P12
Circuito Info
36 carreras held (1991–) Récord de vuelta 1:15.641 · Giancarlo Fisichella (2005)
Récords Watch · Active drivers ranked at this Grand Prix
P1 Lewis Hamilton 1 victorias · GP #1
P1 Lewis Hamilton 1 · GP #1
P1 Lando Norris 1 · GP #1
P1 George Russell 1 · GP #1
P1 Alexander Albon 1 salidas · GP #1
P1 Fernando Alonso 1 salidas · GP #1
P1 Andrea Kimi Antonelli 1 salidas · GP #1
Carrera Trace · position by lap
VSC · vueltas 41–42 VSC · vueltas 63–65 salida parada SG 1 6 11 16 21 26 31 36 41 46 51 56 61 66 Hamilton · parada en boxes L11 Hamilton · parada en boxes L27 Hamilton · parada en boxes L41 Hamilton HAM Hamilton HAM Russell · parada en boxes L12 Russell · parada en boxes L36 Russell RUS Russell RUS Norris · parada en boxes L13 Norris · parada en boxes L35 Norris NOR Norris NOR Verstappen · parada en boxes L12 Verstappen · parada en boxes L29 Verstappen · parada en boxes L40 Verstappen VER Verstappen VER Piastri · parada en boxes L14 Piastri · parada en boxes L36 Piastri PIA Piastri PIA Hadjar · parada en boxes L15 Hadjar · parada en boxes L32 Hadjar · parada en boxes L58 Hadjar HAD Hadjar HAD Gasly · parada en boxes L14 Gasly · parada en boxes L40 Gasly GAS Gasly GAS Lawson · parada en boxes L11 Lawson · parada en boxes L35 Lawson LAW Lawson LAW Lindblad · parada en boxes L22 Lindblad · parada en boxes L37 Lindblad LIN Lindblad LIN Colapinto · parada en boxes L12 Colapinto · parada en boxes L34 Colapinto COL Colapinto COL Bortoleto · parada en boxes L15 Bortoleto · parada en boxes L33 Bortoleto · parada en boxes L53 Bortoleto BOR Bortoleto BOR Sainz · parada en boxes L14 Sainz · parada en boxes L30 Sainz · parada en boxes L55 Sainz SAI Sainz SAI Ocon · parada en boxes L13 Ocon · parada en boxes L34 Ocon · parada en boxes L58 Ocon OCO Ocon OCO Pérez · parada en boxes L12 Pérez · parada en boxes L31 Pérez · parada en boxes L39 Pérez PER Pérez PER Leclerc · parada en boxes L16 Leclerc · parada en boxes L39 Leclerc · detenido L62 · clasificado P15 Leclerc LEC Leclerc LEC Antonelli · parada en boxes L14 Antonelli · parada en boxes L37 Antonelli · detenido L61 · clasificado P16 Antonelli ANT Antonelli ANT Bearman · parada en boxes L18 Bearman · parada en boxes L39 Bearman · detenido L60 · clasificado P17 Bearman BEA Bearman BEA Albon · parada en boxes L13 Albon · parada en boxes L29 Albon · parada en boxes L34 Albon · parada en boxes L50 Albon ALB Albon ALB Alonso · parada en boxes L21 Alonso · abandono L37 Alonso ALO Alonso ALO Hülkenberg · parada en boxes L13 Hülkenberg · abandono L29 Hülkenberg HUL Hülkenberg HUL Bottas · parada en boxes L14 Bottas · abandono L15 Bottas BOT Bottas BOT Stroll · abandono L5 Stroll STR Stroll STR
SC·VSC parada en boxes sanción cumplida en boxes SG Parrilla de salida coche detenido posición en cada vuelta (desde 1996)
PosPilotoTeamParrillaVueltaTiempo / EstadoPuntos
1 44 Lewis Hamilton FL Ferrari 2 66 1:32:28.105 25
2 63 George Russell Mercedes 1 66 +19.561 18
3 1 Lando Norris McLaren 4 66 +23.719 15
4 3 Max Verstappen Red Bull 5 66 +40.497 12
5 81 Oscar Piastri McLaren 7 66 +58.661 10
6 6 Isack Hadjar Red Bull 6 65 +24.627 8
7 10 Pierre Gasly Alpine F1 Team 14 65 +55.789 6
8 30 Liam Lawson RB F1 Team 8 65 +1:12.224 4
9 41 Arvid Lindblad RB F1 Team 11 65 +1:18.074 2
10 43 Franco Colapinto Alpine F1 Team 13 65 +1:19.867 1
11 5 Gabriel Bortoleto Audi 12 64 +26.687
12 55 Carlos Sainz Williams 16 64 +27.866
13 31 Esteban Ocon Haas F1 Team 17 64 +59.149
14 11 Sergio Pérez Cadillac F1 Team 19 63 +7.769
15 16 Charles Leclerc Ferrari 10 62
16 12 Andrea Kimi Antonelli Mercedes 3 61
17 87 Oliver Bearman Haas F1 Team 15 60
R 23 Alexander Albon Williams 18 55 Lapped
R 14 Fernando Alonso Aston Martin 22 37 Retired
R 27 Nico Hülkenberg Audi 9 29 Retired
R 77 Valtteri Bottas Cadillac F1 Team 20 15 Retired
R 18 Lance Stroll Aston Martin 21 5 Retired
PosPilotoTeamQ1Q2Q3Diferencia con la pole
1 63 George Russell Mercedes 1:15.717 1:15.228 1:14.679 POLE Q3
2 44 Lewis Hamilton Ferrari 1:15.625 1:15.418 1:14.743 +0.064 Q3
3 12 Andrea Kimi Antonelli Mercedes 1:15.977 1:15.295 1:14.998 +0.319 Q3
4 1 Lando Norris McLaren 1:16.287 1:15.361 1:15.001 +0.322 Q3
5 3 Max Verstappen Red Bull 1:16.352 1:15.484 1:15.021 +0.342 Q3
6 6 Isack Hadjar Red Bull 1:16.427 1:15.754 1:15.077 +0.398 Q3
7 81 Oscar Piastri McLaren 1:16.138 1:15.518 1:15.090 +0.411 Q3
8 30 Liam Lawson RB F1 Team 1:16.673 1:15.585 1:16.542 +0.906 Q2
9 27 Nico Hülkenberg Audi 1:16.066 1:15.768 1:16.657 +1.089 Q2
10 16 Charles Leclerc Ferrari 1:15.964 1:15.281 +0.602 Q2
11 41 Arvid Lindblad RB F1 Team 1:16.425 1:15.840 +1.161 Q2
12 5 Gabriel Bortoleto Audi 1:16.616 1:16.001 +1.322 Q2
13 43 Franco Colapinto Alpine F1 Team 1:16.590 1:16.191 +1.512 Q2
14 10 Pierre Gasly Alpine F1 Team 1:16.599 1:16.261 +1.582 Q2
15 87 Oliver Bearman Haas F1 Team 1:16.571 1:16.389 +1.710 Q2
16 55 Carlos Sainz Williams 1:16.881 1:17.827 +2.202 Q1
17 31 Esteban Ocon Haas F1 Team 1:17.073 +2.394 Q1
18 23 Alexander Albon Williams 1:17.424 +2.745 Q1
19 11 Sergio Pérez Cadillac F1 Team 1:17.545 +2.866 Q1
20 77 Valtteri Bottas Cadillac F1 Team 1:17.757 +3.078 Q1
21 18 Lance Stroll Aston Martin 1:18.758 +4.079 Q1
22 14 Fernando Alonso Aston Martin 1:18.815 +4.136 Q1
Parrilla de salida
Oficial
Final grid as clasificado, including any desde el pit lane salidas. Source: Jolpica-F1. The arrow compares the grid slot with the clasificación classification; hover a drop to see the stewards document behind it.
Programado: aparecerá cuando termine clasificación al sprint.
PosPilotoMejor vueltaDiferenciaVueltas
1 63 George Russell 1:16.363 27
2 81 Oscar Piastri 1:16.566 +0.203 29
3 16 Charles Leclerc 1:16.883 +0.520 29
4 3 Max Verstappen 1:17.047 +0.684 29
5 30 Liam Lawson 1:17.472 +1.109 24
6 41 Arvid Lindblad 1:17.804 +1.441 29
7 43 Franco Colapinto 1:17.893 +1.530 28
8 87 Oliver Bearman 1:18.172 +1.809 25
9 5 Gabriel Bortoleto 1:18.209 +1.846 28
10 55 Carlos Sainz 1:18.293 +1.930 27
11 31 Esteban Ocon 1:18.372 +2.009 27
12 10 Pierre Gasly 1:18.508 +2.145 23
13 77 Valtteri Bottas 1:18.914 +2.551 23
14 14 Fernando Alonso 1:20.067 +3.704 23
15 18 Lance Stroll 1:20.318 +3.955 21
Classified by best lap · source OpenF1 (2023+)
PosPilotoMejor vueltaDiferenciaVueltas
1 1 Lando Norris 1:15.426 30
2 63 George Russell 1:15.435 +0.009 28
3 81 Oscar Piastri 1:15.483 +0.057 24
4 16 Charles Leclerc 1:15.799 +0.373 29
5 12 Andrea Kimi Antonelli 1:16.015 +0.589 31
6 3 Max Verstappen 1:16.321 +0.895 33
7 41 Arvid Lindblad 1:16.411 +0.985 29
8 5 Gabriel Bortoleto 1:16.611 +1.185 27
9 44 Lewis Hamilton 1:16.631 +1.205 28
10 6 Isack Hadjar 1:16.674 +1.248 30
11 27 Nico Hülkenberg 1:16.934 +1.508 31
12 87 Oliver Bearman 1:16.945 +1.519 31
13 30 Liam Lawson 1:16.967 +1.541 8
14 55 Carlos Sainz 1:17.020 +1.594 29
15 43 Franco Colapinto 1:17.051 +1.625 30
16 10 Pierre Gasly 1:17.260 +1.834 29
17 31 Esteban Ocon 1:17.538 +2.112 29
18 77 Valtteri Bottas 1:18.225 +2.799 6
19 23 Alexander Albon 1:18.790 +3.364 29
20 11 Sergio Pérez 1:19.261 +3.835 34
21 14 Fernando Alonso 1:19.286 +3.860 21
22 18 Lance Stroll 1:19.459 +4.033 20
Classified by best lap · source OpenF1 (2023+)
PosPilotoMejor vueltaDiferenciaVueltas
1 63 George Russell 1:15.679 11
2 81 Oscar Piastri 1:15.893 +0.214 12
3 16 Charles Leclerc 1:15.922 +0.243 17
4 1 Lando Norris 1:15.925 +0.246 15
5 44 Lewis Hamilton 1:16.381 +0.702 16
6 3 Max Verstappen 1:16.434 +0.755 12
7 12 Andrea Kimi Antonelli 1:16.500 +0.821 12
8 6 Isack Hadjar 1:16.684 +1.005 15
9 27 Nico Hülkenberg 1:16.961 +1.282 22
10 41 Arvid Lindblad 1:17.020 +1.341 16
11 5 Gabriel Bortoleto 1:17.027 +1.348 13
12 30 Liam Lawson 1:17.324 +1.645 15
13 10 Pierre Gasly 1:17.583 +1.904 15
14 43 Franco Colapinto 1:17.625 +1.946 14
15 55 Carlos Sainz 1:17.730 +2.051 19
16 31 Esteban Ocon 1:18.040 +2.361 15
17 87 Oliver Bearman 1:18.391 +2.712 13
18 23 Alexander Albon 1:18.412 +2.733 15
19 11 Sergio Pérez 1:18.691 +3.012 21
20 14 Fernando Alonso 1:19.496 +3.817 18
21 77 Valtteri Bottas 1:19.962 +4.283 14
22 18 Lance Stroll 1:20.103 +4.424 17
Classified by best lap · source OpenF1 (2023+)
#PilotoTiempo de vueltaVuelta
1 44 Lewis Hamilton 1:20.122 L44
2 44 Lewis Hamilton 1:20.129 L45
3 6 Isack Hadjar 1:20.150 L60
4 44 Lewis Hamilton 1:20.182 L47
5 3 Max Verstappen 1:20.230 L42
6 1 Lando Norris 1:20.232 L37
7 44 Lewis Hamilton 1:20.293 L50
8 44 Lewis Hamilton 1:20.313 L48
9 44 Lewis Hamilton 1:20.314 L43
10 44 Lewis Hamilton 1:20.369 L46
Top 10 más rápida race vueltas — #1 is the más rápida lap of la carrera(FL).
Paradas · cómo se comparan
22s 24s 26s mediana 22.7s George Russell · L36 · 21.677s Oscar Piastri · L14 · 21.776s Lando Norris · L13 · 21.791s Isack Hadjar · L58 · 21.949s Alexander Albon · L29 · 22.027s Andrea Kimi Antonelli · L14 · 22.038s Lando Norris · L35 · 22.041s George Russell · L12 · 22.080s Charles Leclerc · L39 · 22.125s Andrea Kimi Antonelli · L37 · 22.210s Fernando Alonso · L21 · 22.220s Charles Leclerc · L16 · 22.249s Max Verstappen · L12 · 22.273s Gabriel Bortoleto · L33 · 22.285s Franco Colapinto · L34 · 22.290s Isack Hadjar · L15 · 22.444s Arvid Lindblad · L22 · 22.476s Lewis Hamilton · L27 · 22.477s Lewis Hamilton · L11 · 22.480s Isack Hadjar · L32 · 22.528s Carlos Sainz · L30 · 22.595s Oscar Piastri · L36 · 22.661s Pierre Gasly · L14 · 22.682s Alexander Albon · L50 · 22.703s Carlos Sainz · L55 · 22.772s Gabriel Bortoleto · L15 · 22.783s Max Verstappen · L40 · 22.786s Lewis Hamilton · L41 · 22.837s Nico Hülkenberg · L13 · 22.869s Esteban Ocon · L58 · 22.965s Carlos Sainz · L14 · 22.977s Franco Colapinto · L12 · 22.983s Oliver Bearman · L18 · 23.118s Liam Lawson · L35 · 23.172s Esteban Ocon · L13 · 23.256s Valtteri Bottas · L14 · 23.280s Pierre Gasly · L40 · 23.310s Oliver Bearman · L39 · 23.901s Sergio Pérez · L39 · 23.912s Alexander Albon · L13 · 24.005s Arvid Lindblad · L37 · 24.010s Max Verstappen · L29 · 24.189s Sergio Pérez · L31 · 24.432s Sergio Pérez · L12 · 24.805s Gabriel Bortoleto · L53 · 25.915s Liam Lawson · L11 · 25.983s Esteban Ocon · L34 · 26.449s
más rápida 21.677s George Russell más lenta 26.449s Esteban Ocon tiempo de paso por el desde el pit lane — un punto por parada
PilotoParadaVueltaTiempoPaso por el desde el pit lane
30 Liam Lawson 1 11 15:19:05 25.983s
44 Lewis Hamilton 1 11 15:18:43 22.480s
43 Franco Colapinto 1 12 15:20:38 22.983s
3 Max Verstappen 1 12 15:20:15 22.273s
63 George Russell 1 12 15:20:03 22.080s
11 Sergio Pérez 1 12 15:20:52 24.805s
27 Nico Hülkenberg 1 13 15:21:58 22.869s
31 Esteban Ocon 1 13 15:22:13 23.256s
1 Lando Norris 1 13 15:21:34 21.791s
23 Alexander Albon 1 13 15:22:15 24.005s
77 Valtteri Bottas 1 14 15:23:59 23.280s
81 Oscar Piastri 1 14 15:23:07 21.776s
55 Carlos Sainz 1 14 15:23:35 22.977s
10 Pierre Gasly 1 14 15:23:31 22.682s
12 Andrea Kimi Antonelli 1 14 15:22:55 22.038s
5 Gabriel Bortoleto 1 15 15:25:07 22.783s
6 Isack Hadjar 1 15 15:24:48 22.444s
16 Charles Leclerc 1 16 15:25:51 22.249s
87 Oliver Bearman 1 18 15:29:25 23.118s
14 Fernando Alonso 1 21 15:34:11 22.220s
41 Arvid Lindblad 1 22 15:34:58 22.476s
44 Lewis Hamilton 2 27 15:41:05 22.477s
23 Alexander Albon 2 29 15:45:34 22.027s
3 Max Verstappen 2 29 15:44:04 24.189s
55 Carlos Sainz 2 30 15:46:35 22.595s
11 Sergio Pérez 2 31 15:48:37 24.432s
6 Isack Hadjar 2 32 15:48:46 22.528s
5 Gabriel Bortoleto 2 33 15:50:58 22.285s
31 Esteban Ocon 2 34 15:52:35 26.449s
43 Franco Colapinto 2 34 15:52:02 22.290s
23 Alexander Albon 3 34 15:52:59
1 Lando Norris 2 35 15:52:14 22.041s
30 Liam Lawson 2 35 15:53:25 23.172s
81 Oscar Piastri 2 36 15:53:56 22.661s
63 George Russell 2 36 15:53:32 21.677s
41 Arvid Lindblad 2 37 15:56:31 24.010s
12 Andrea Kimi Antonelli 2 37 15:54:54 22.210s
16 Charles Leclerc 2 39 15:57:58 22.125s
87 Oliver Bearman 2 39 15:59:42 23.901s
11 Sergio Pérez 3 39 16:00:43 23.912s
10 Pierre Gasly 2 40 16:00:55 23.310s
3 Max Verstappen 3 40 15:59:35 22.786s
44 Lewis Hamilton 3 41 16:00:50 22.837s
23 Alexander Albon 4 50 16:28:24 22.703s
5 Gabriel Bortoleto 3 53 16:19:54 25.915s
55 Carlos Sainz 3 55 16:22:41 22.772s
6 Isack Hadjar 3 58 16:25:31 21.949s
31 Esteban Ocon 3 58 16:27:21 22.965s
paradas
SG 10 20 30 40 50 60 L66
44
3
S10·+2
H16
M14
H26
63
2
M11
H24
H31
1
2
M12
H22
H32
3
3
S11·+3
M17
H11
M27
81
2
M13
H22
H31
6
3
M14
H17
H26
S8·+3
10
2
M13
H26
H26
30
2
M10
H24
H31
41
2
M21
H15
H29
43
2
S11
H22
H32
5
3
M14
H18
H20
S12
55
3
S13
H16
H25
M10
31
3
S12
H21
M24
S7
11
3
S11
H19
H8
M25
16
2
M15
H23
H24
12
2
M13
H23
H25
87
2
M17
S43
23
4
M12
H16
H5
S16
S6·+3
14
1
H20
H17
27
1
S12
H17
77
1
M13
M2
18
0
H5
S Soft M Medium H Hard I Intermediate W Wet SC·VSC parada en boxes sanción cumplida en boxes
Carrera · ancho de barra = vueltas con ese juego, ·+N = montado usado con N vueltas previas · fuente OpenF1 (2023+)
Más puestos ganados en pista
5
+19
P12→P11
87
+17
P15→P17
55
+15
P16→P12
6
+13
P6→P6
30
+13
P8→P8
41
+13
P11→P9
43
+12
P13→P10
44
+11
P2→P1
Más puestos perdidos
Oliver Bearman −17 Liam Lawson −14 Arvid Lindblad −14
Carrera · Suma de posiciones ganadas en pista vuelta a vuelta — se excluyen la vuelta de salida y las vueltas de boxes propias. Datos de vueltas de carrera desde 1996.
PilotoTipoVueltaCumplidaImpuestaMotivo
12 Andrea Kimi Antonelli Black-and-white flag warning 29 TRACK LIMITS
Vuelta 29 TRACK LIMITS
16 Charles Leclerc Vueltas eliminadas 64 TRACK LIMITS (PIT)
Vuelta 64 TRACK LIMITS (PIT)
Vuelta = vuelta en que se impuso la sanción · Cumplida = vuelta en que se cumplió en boxes (en blanco: se sumó al tiempo de carrera)
Time, drive-through and stop-go penalties come from race control messages (OpenF1, 2023+). Parrilla penalties never appear there — the stewards publish them as documents after the session — so they are worked back from the starting grid against the clasificación classification, which gives places actually lost rather than the figure written in the decision.
PilotoTipoVueltaCumplidaImpuestaMotivo
44 Lewis Hamilton Black-and-white flag warning DRIVING UNNECESSARILY SLOWLY
DRIVING UNNECESSARILY SLOWLY
27 Nico Hülkenberg Black-and-white flag warning DRIVING UNNECESSARILY SLOWLY
DRIVING UNNECESSARILY SLOWLY
63 George Russell Black-and-white flag warning DRIVING UNNECESSARILY SLOWLY
DRIVING UNNECESSARILY SLOWLY
18 Lance Stroll Vueltas eliminadas TRACK LIMITS (PIT)
TRACK LIMITS (PIT)
Vuelta = vuelta en que se impuso la sanción · Cumplida = vuelta en que se cumplió en boxes (en blanco: se sumó al tiempo de carrera)
Time, drive-through and stop-go penalties come from race control messages (OpenF1, 2023+). Parrilla penalties never appear there — the stewards publish them as documents after the session — so they are worked back from the starting grid against the clasificación classification, which gives places actually lost rather than the figure written in the decision.
PilotoTipoVueltaCumplidaImpuestaMotivo
23 Alexander Albon Vueltas eliminadas TRACK LIMITS (PIT)
TRACK LIMITS (PIT)
5 Gabriel Bortoleto Vueltas eliminadas TRACK LIMITS (PIT)
TRACK LIMITS (PIT)
Vuelta = vuelta en que se impuso la sanción · Cumplida = vuelta en que se cumplió en boxes (en blanco: se sumó al tiempo de carrera)
Time, drive-through and stop-go penalties come from race control messages (OpenF1, 2023+). Parrilla penalties never appear there — the stewards publish them as documents after the session — so they are worked back from the starting grid against the clasificación classification, which gives places actually lost rather than the figure written in the decision.
PilotoTipoVueltaCumplidaImpuestaMotivo
11 Sergio Pérez Black-and-white flag warning DRIVING ERRATICALLY
DRIVING ERRATICALLY
12 Andrea Kimi Antonelli Vueltas eliminadas TRACK LIMITS (PIT)
TRACK LIMITS (PIT)
18 Lance Stroll Vueltas eliminadas TRACK LIMITS
TRACK LIMITS
63 George Russell Vueltas eliminadas TRACK LIMITS (PIT)
TRACK LIMITS (PIT)
14 Fernando Alonso Vueltas eliminadas TRACK LIMITS (PIT)
TRACK LIMITS (PIT)
63 George Russell Vueltas eliminadas TRACK LIMITS (PIT)
TRACK LIMITS (PIT)
12 Andrea Kimi Antonelli Vueltas eliminadas TRACK LIMITS (PIT)
TRACK LIMITS (PIT)
Vuelta = vuelta en que se impuso la sanción · Cumplida = vuelta en que se cumplió en boxes (en blanco: se sumó al tiempo de carrera)
Time, drive-through and stop-go penalties come from race control messages (OpenF1, 2023+). Parrilla penalties never appear there — the stewards publish them as documents after the session — so they are worked back from the starting grid against the clasificación classification, which gives places actually lost rather than the figure written in the decision.
PilotoTipoVueltaCumplidaImpuestaMotivo
Vueltas eliminadas TRACK LIMITS (PIT)
TRACK LIMITS (PIT)
5 Gabriel Bortoleto Vueltas eliminadas TRACK LIMITS (PIT)
TRACK LIMITS (PIT)
5 Gabriel Bortoleto Vueltas eliminadas TRACK LIMITS (PIT)
TRACK LIMITS (PIT)
Vuelta = vuelta en que se impuso la sanción · Cumplida = vuelta en que se cumplió en boxes (en blanco: se sumó al tiempo de carrera)
Time, drive-through and stop-go penalties come from race control messages (OpenF1, 2023+). Parrilla penalties never appear there — the stewards publish them as documents after the session — so they are worked back from the starting grid against the clasificación classification, which gives places actually lost rather than the figure written in the decision.
No se publicaron documentos para esta prueba.
Record Basis · Calculation basis
Carrera order is the final classification(post-race penalties applied) · clasificación session data 2003+ · lap times 1996+ · pit stops 2012+ (pit-lane transit, not stationary time) · Abandono = Finished(Finished·+N Vueltas) non-Finished statuses
Fuentes de datos: Jolpica-F1 (Ergast compatible API) · weather·Dirección de carrera OpenF1 (2023+) · Last fetched: 2026-09-05 14:15